Regional Weather Roundup
Issued by NWS Cleveland, OH

Home | Current Version | Previous Version | Graphics & Text | Print | Product List | Glossary On
Versions: 1 2 3 4 5 6 7 8 9 10 11 12 13 14 15 16 17 18 19 20 21 22 23 24 25 26 27 28 29 30 31 32 33 34 35 36 37 38 39 40 41 42 43 44 45 46 47 48 49 50
000
ASUS41 KCLE 210200
RWRCLE
OHIO REGIONAL WEATHER ROUNDUP
NATIONAL WEATHER SERVICE WILMINGTON, OH
900 PM EST TUE FEB 20 2018

NOTE: "FAIR" INDICATES FEW OR NO CLOUDS BELOW 12,000 FEET WITH NO
SIGNIFICANT WEATHER AND/OR OBSTRUCTIONS TO VISIBILITY.

OHZ001>008-015>018-024>027-034-035-043-044-210300-
   NORTHWEST OHIO

CITY           SKY/WX    TMP DP  RH WIND       PRES   REMARKS
DEFIANCE       CLOUDY    59  55  87 NW13      30.05R
FINDLAY        FAIR      67  53  61 S21G28    30.03R
TOLEDO EXPRESS CLOUDY    69  57  65 S14G22    29.99S
TOLEDO EXEC    MOCLDY    66  56  70 S18       30.01R
LIMA           FAIR      68  55  63 S15G25    30.04F
$$

OHZ009>014-019>023-028>033-038-089-210300-
   NORTHEAST OHIO

CITY           SKY/WX    TMP DP  RH WIND       PRES   REMARKS
CLE-HOPKINS    CLOUDY    71  54  54 S15G24    30.09S
CLE-LAKEFRONT  FAIR      71  52  50 S17G24    30.05S
CUY CO. ARPT   PTCLDY    72  55  56 S14       30.08S
LORAIN-ELYRIA  FAIR      67  50  54 S14G21    30.07S
ASHTABULA      FAIR      68  55  63 S16G22    30.09F
AKRON-CANTON   FAIR      67  50  54 S13       30.13F
WOOSTER        NOT AVBL
MANSFIELD      FAIR      67  54  63 S16G29    30.10S
YOUNGSTOWN     CLOUDY    68  53  58 S8        30.13F
$$

OHZ042-051>053-060>062-070>072-077>081-210300-
  SOUTHWEST OHIO

CITY           SKY/WX    TMP DP  RH WIND       PRES   REMARKS
CINC-COVINGTON CLOUDY    70  57  63 S12       30.13S
CINC-LUNKEN    CLOUDY    71  56  58 S9        30.13S
HAMILTON       FAIR      72  56  57 VRB7      30.12S
DAYTON         NOT AVBL
WRIGHT-PAT AFB FAIR      71  54  55 S15G22    30.11S
DAYTON GENERAL FAIR      70  54  56 S12       30.11S
WILMINGTON     MOCLDY    66  56  70 S10       30.15R
$$

OHZ036-037-039>041-045>050-054>059-063>069-073>076-082>088-210300-
  CENTRAL AND SOUTHEAST OHIO

CITY           SKY/WX    TMP DP  RH WIND       PRES   REMARKS
COLUMBUS       CLOUDY    69  55  60 S9        30.14R
OSU AIRPORT    FAIR      68  55  63 S12       30.12S
BOLTON FIELD   MOCLDY    66  55  66 S14       30.15R
RICKENBACK AFB NOT AVBL
NEWARK         FAIR      68  52  56 S9        30.14S
MARION         FAIR      67  53  61 SW16      30.10S
LANCASTER      MOCLDY    69  53  56 S8        30.17R
ZANESVILLE     FAIR      65  50  58 S7        30.16S
NEW PHILLY     FAIR      66  52  60 S3        30.15S
$$




USA.gov is the U.S. government's official web portal to all federal, state and local government web resources and services.